Temperature
15 15 16 16 16 16 16 16 16 16 16 16 16 16 16 16 16 16 16 16 16 16 16 16 15 15 15 15 15 15 15 15 15 15 15 15 15 15 15 15 15 15 15
16 15 16 16 16 16 16 16 16 16 16 16 16 16 16 16 16 16 16 16 16 16 16 16 15 15 15 15 15 15 15 15 15 15 15 15 15 15 15 15 15 14 15
15 15 15 15 16 16 16 16 16 16 16 16 16 16 15 15 15 15 15 16 16 16 15 15 15 15 15 15 15 15 15 15 15 15 14 14 14 14 14 14 14 14 14
15 15 15 15 15 15 15 15 15 15 15 15 15 15 15 15 15 15 15 15 15 15 15 15 15 15 15 15 15 15 15 15 15 14 14 13 14 14 14 14 14 14 14
15 15 15 15 15 15 15 15 15 15 15 15 15 15 15 15 15 15 15 15 15 15 15 15 15 15 15 15 15 15 15 15 14 14 13 13 13 14 14 14 14 14 14
14 14 15 15 15 15 15 15 15 15 15 15 15 15 15 15 15 15 15 15 15 15 15 15 15 15 15 14 14 14 14 14 14 13 13 13 13 13 13 13 13 13 13
14 14 14 15 15 15 15 15 15 15 15 15 15 15 15 15 15 15 15 15 15 15 15 14 14 14 14 14 14 14 14 14 13 13 13 13 13 13 13 13 13 13 13
14 14 14 14 14 15 15 15 15 15 15 15 15 15 15 15 15 15 15 15 15 14 14 14 14 14 14 14 14 14 14 14 13 13 13 13 13 13 13 13 13 13 13
14 14 14 14 14 14 14 14 14 14 14 14 14 15 15 15 15 15 14 14 14 14 14 14 14 14 14 14 14 14 13 13 13 12 12 12 13 13 13 13 13 13 13
14 13 13 14 14 14 14 14 14 14 14 14 14 14 14 14 14 14 14 14 14 14 14 14 14 13 13 13 13 13 13 13 12 12 12 12 13 13 12 12 12 12 12
13 13 13 13 13 13 13 14 14 14 14 14 14 14 14 14 14 14 14 14 14 14 14 13 13 13 13 13 13 13 13 12 12 12 12 12 12 12 12 12 12 12 12
13 13 13 13 13 13 13 13 13 13 13 13 13 13 13 13 13 13 13 13 13 13 13 13 13 13 13 12 12 12 12 12 11 11 12 12 12 12 12 12 12 12 12
13 13 13 13 13 13 13 13 13 13 13 13 13 13 13 13 13 13 13 13 13 13 13 13 13 12 12 12 12 12 12 11 11 11 11 11 11 11 11 11 11 11 11
12 13 13 13 13 13 13 13 13 13 13 13 13 13 13 13 13 13 12 12 12 12 12 12 12 12 12 12 12 12 11 11 11 11 11 11 11 11 11 11 11 11 11
12 12 13 13 13 13 13 13 12 12 12 12 12 12 12 12 12 12 12 12 12 12 12 12 12 12 12 12 11 11 11 11 11 11 11 11 11 11 11 10 11 11 11
11 12 12 12 12 12 12 12 12 12 12 12 12 12 12 12 12 12 12 12 12 12 12 12 11 11 11 11 11 11 11 11 11 11 10 11 11 10 10 10 10 10 10
11 11 11 12 12 12 12 12 12 12 12 12 12 12 12 12 12 12 12 12 11 11 11 11 11 11 11 11 11 11 11 10 10 10 10 10 10 10 10 10 10 10 10
10 11 11 11 11 11 11 11 11 11 11 11 11 11 11 12 12 11 11 11 11 11 11 11 11 11 11 11 10 10 10 10 10 10 10 10 10 10 10 10 10 10 10
10 10 10 11 11 11 11 11 11 11 11 11 11 11 11 11 11 11 11 11 11 11 11 11 11 10 10 10 10 10 10 10 10 10 10 10 10 10 9 10 10 10 10
9 10 10 10 10 10 11 10 10 10 11 11 11 11 11 11 11 11 11 11 10 10 10 10 10 10 10 10 10 10 10 9 9 9 9 9 9 9 9 9 9 9 9
9 9 9 9 10 10 10 10 10 10 10 10 10 10 10 11 10 10 10 10 10 10 10 10 10 10 10 10 9 9 9 9 9 9 9 9 9 9 9 9 9 9 9
9 9 9 9 9 9 9 10 10 10 10 10 10 10 10 10 10 10 10 10 10 10 10 9 9 9 9 9 9 8 8 8 9 9 9 9 9 9 9 9 8 8 8
8 8 9 9 9 9 9 9 9 9 9 9 9 9 10 10 10 10 9 9 9 10 9 9 9 9 9 9 9 8 8 9 8 8 9 9 9 8 8 8 8 8 8
7 8 8 8 8 8 8 8 8 8 8 9 9 9 9 9 9 9 9 9 9 9 9 9 9 9 9 9 8 8 8 9 8 8 8 8 8 8 8 8 8 8 8
7 7 7 7 8 8 8 8 8 8 8 8 8 8 8 9 9 9 9 9 9 9 9 9 8 8 8 8 8 8 8 8 8 8 7 8 8 8 8 8 7 7 7
6 7 7 7 7 7 7 7 7 7 7 7 7 7 8 8 8 8 8 8 8 8 8 8 8 8 8 8 8 8 7 7 7 7 7 7 7 7 7 7 7 7 7
Wind_Speed
5 6 7 7 7 9 9 9 9 9 9 10 10 10 11 12 12 12 13 13 13 13 13 13 14 14 14 15 15 15 16 16 16 15 15 15 15 15 14 12 12 14 15
7 8 9 8 8 9 9 9 9 9 9 10 10 10 10 11 12 12 13 13 13 13 13 13 13 13 14 14 14 15 15 15 15 14 14 14 14 14 14 14 14 13 15
7 9 10 9 8 9 10 9 9 10 9 10 10 9 10 10 10 11 12 12 12 13 12 12 12 13 13 13 14 14 14 14 13 11 9 11 13 14 14 14 14 14 14
7 9 10 10 9 10 10 10 9 10 10 10 10 9 10 10 10 10 11 11 11 11 12 12 12 12 12 13 13 13 13 12 10 6 9 11 12 13 13 13 14 14 14
7 9 10 10 10 10 10 10 10 9 9 9 9 9 9 9 10 10 10 10 10 11 11 11 11 11 11 12 12 12 12 11 8 7 10 10 11 13 13 12 12 12 13
7 8 10 10 10 10 10 10 9 9 9 9 9 9 9 9 9 10 10 10 9 10 10 10 10 10 10 11 11 11 10 8 6 9 9 9 10 11 11 11 11 12 12
7 7 10 9 9 10 10 9 9 9 9 9 9 9 9 9 9 9 9 9 9 9 9 9 9 9 9 10 10 10 9 6 7 8 8 9 10 10 10 10 11 11 11
6 7 9 8 9 9 9 9 9 8 8 9 9 9 8 8 8 8 8 8 8 8 8 8 8 8 9 9 9 9 7 5 7 8 8 8 9 9 9 9 10 10 10
6 6 7 8 8 9 8 8 7 7 8 8 8 8 8 8 8 8 8 8 7 7 7 7 7 8 8 8 8 8 7 4 6 7 7 8 8 8 8 8 8 9 9
5 4 5 5 6 7 7 7 6 6 7 7 8 8 8 8 7 7 8 7 6 6 6 7 7 7 7 7 7 7 6 4 6 6 6 7 7 7 7 7 7 7 7
4 4 3 3 4 5 5 6 6 6 6 6 7 8 7 6 6 6 7 7 6 5 5 6 7 7 7 7 6 7 6 4 5 5 5 7 6 6 6 6 6 6 6
4 3 2 2 3 3 4 5 4 4 5 5 5 7 5 4 4 5 7 7 6 5 6 6 6 7 6 6 6 6 4 4 4 4 5 5 5 5 5 5 5 5 4
3 3 2 2 2 2 2 3 3 3 4 4 5 5 4 4 4 4 5 6 5 5 4 5 5 5 4 4 4 4 4 4 3 4 5 5 4 4 4 4 4 3 3
2 2 2 2 2 2 2 2 2 2 3 3 4 5 4 3 3 3 3 4 4 4 3 4 4 4 4 5 5 4 5 4 3 4 4 4 3 3 3 3 3 3 2
1 1 2 2 2 2 2 1 1 2 3 3 3 4 4 3 3 3 3 3 4 4 4 3 4 5 4 4 4 4 3 4 4 4 4 4 2 2 2 2 2 2 1
2 2 2 3 2 1 2 2 1 2 2 3 3 4 4 4 3 3 3 3 3 4 4 4 4 4 4 4 4 4 4 4 4 4 4 4 3 2 2 2 2 1 0
2 2 2 2 2 2 2 2 1 1 2 2 3 4 4 4 4 4 3 3 3 4 4 4 4 4 4 4 4 4 3 3 4 4 4 3 4 3 2 2 2 1 1
2 2 1 2 2 2 2 2 1 1 1 2 2 3 5 5 5 4 3 3 4 4 4 4 4 4 4 4 4 3 3 3 4 4 4 3 3 3 3 3 2 2 2
1 2 1 2 2 2 2 2 2 2 2 2 2 2 3 5 5 5 4 4 4 4 4 4 4 4 5 4 3 3 3 3 4 4 4 4 3 3 3 3 3 2 1
1 1 2 1 2 1 1 1 1 1 1 1 2 2 3 4 5 5 4 5 5 4 4 4 4 4 4 4 3 3 3 3 4 4 4 4 4 4 4 3 4 4 3
0 1 1 1 1 1 1 1 2 2 2 2 2 3 4 4 5 5 4 5 5 6 6 6 5 5 5 4 3 3 3 4 4 4 4 4 4 5 4 4 4 4 3
0 1 1 1 2 2 2 2 2 3 3 3 2 3 4 4 5 5 5 5 6 6 7 7 6 4 4 5 4 3 3 4 4 5 5 5 5 5 5 5 5 5 4
1 2 2 2 2 2 1 1 0 1 1 2 3 3 4 4 5 5 6 6 6 7 7 7 8 7 6 6 5 4 4 4 3 4 6 6 6 5 5 5 6 6 5
1 2 2 2 2 1 1 1 2 2 3 4 4 4 4 5 5 5 6 7 7 7 8 8 8 7 7 7 6 6 5 3 3 3 4 5 6 6 6 5 6 7 6
2 2 2 2 1 1 1 2 3 3 4 4 4 5 4 4 5 5 5 6 7 7 8 9 9 9 8 8 7 5 6 4 5 4 4 4 5 5 6 6 6 6 6
2 2 2 2 2 2 2 2 3 4 4 5 5 5 5 4 5 5 5 6 6 7 8 8 9 11 9 9 8 7 6 5 6 6 6 5 5 4 5 5 6 5 6
Wind_Direction
153 147 137 132 129 122 117 118 114 112 110 106 103 102 103 102 101 99 96 93 91 91 91 93 91 89 90 90 88 87 85 82 81 81 81 82 81 81 78 76 78 77 74
153 150 141 138 135 129 122 120 117 115 112 110 107 105 103 102 102 100 98 94 91 90 90 90 92 92 91 90 90 89 87 84 82 82 85 85 82 81 79 73 70 77 75
145 146 147 141 138 133 127 124 120 117 114 112 110 110 107 102 102 101 100 96 93 91 89 91 93 95 94 92 92 92 89 86 85 84 91 89 86 82 81 78 77 77 76
144 145 147 139 139 134 130 128 124 120 117 114 112 112 111 107 103 101 101 99 96 94 91 91 95 97 97 96 95 95 92 89 86 88 87 85 86 84 82 80 80 79 77
140 143 139 140 139 136 132 130 127 122 120 118 115 114 112 108 106 102 102 102 101 98 95 93 96 99 101 100 99 99 97 93 92 89 86 86 85 85 83 81 81 81 80
140 141 139 142 141 138 134 131 131 127 125 123 119 116 114 110 107 106 103 103 104 104 101 100 98 101 104 105 104 103 103 103 107 90 87 87 87 87 84 83 82 81 80
137 136 137 137 139 137 134 132 131 131 129 127 124 120 116 114 111 109 107 105 107 110 109 106 104 103 107 110 109 107 104 104 101 94 89 86 85 87 87 85 84 82 80
136 135 137 135 131 130 131 130 129 130 131 129 126 121 115 114 115 115 113 110 112 113 115 113 112 111 112 116 116 112 110 115 108 101 95 91 87 89 89 86 83 81 80
122 129 136 145 141 132 127 128 134 136 136 135 131 123 117 114 115 116 115 111 108 112 119 120 118 119 118 121 121 118 113 107 111 104 101 97 95 92 90 87 83 82 79
113 114 124 143 149 144 140 130 130 135 135 137 134 123 117 119 118 120 119 109 105 109 120 127 125 125 127 123 125 126 129 143 114 109 103 100 102 101 96 92 88 84 82
118 121 124 129 143 149 146 139 140 137 131 141 142 132 136 136 132 133 120 118 117 117 123 131 131 130 132 127 130 140 153 140 123 109 103 104 110 108 103 99 94 90 86
141 144 146 148 139 145 147 152 160 159 157 162 159 154 153 149 138 134 131 131 127 123 127 132 137 147 156 147 145 161 154 146 133 122 110 113 121 118 112 104 100 97 92
162 157 171 174 159 141 148 163 166 166 169 170 165 162 157 151 143 145 150 149 148 148 146 149 167 169 166 157 162 168 162 155 145 134 120 116 123 122 118 114 111 109 103
172 180 181 185 178 167 165 168 171 169 171 171 175 174 164 159 164 164 169 173 171 171 171 182 187 178 178 176 175 173 172 165 161 148 131 124 129 137 132 130 125 117 111
204 216 199 199 195 192 179 174 169 181 183 185 185 189 183 178 183 179 185 187 190 183 183 191 198 187 189 186 180 180 185 177 172 167 153 136 140 150 155 153 146 138 137
229 228 233 208 204 201 188 194 178 185 190 194 195 204 197 192 192 195 194 194 196 198 196 200 205 198 197 191 189 193 199 190 182 182 174 165 162 165 171 180 168 174 186
259 230 254 225 207 198 194 196 175 193 202 204 207 212 206 202 199 202 203 202 203 205 203 205 208 202 193 191 200 204 207 212 204 198 188 186 180 170 179 188 190 219 251
290 252 255 252 217 211 207 206 188 184 198 209 215 216 211 206 203 203 209 212 209 207 204 206 206 202 198 199 207 209 214 217 222 211 198 198 201 195 184 187 200 226 251
273 269 239 259 225 216 212 205 195 183 202 207 215 223 217 210 205 205 214 216 207 206 208 208 214 216 207 202 206 215 225 221 222 217 212 210 206 207 202 179 188 198 244
269 265 228 258 242 215 200 197 196 193 210 210 220 235 235 221 213 209 212 213 207 209 212 209 214 224 218 201 198 218 234 231 228 222 223 216 210 214 221 213 205 202 220
338 302 222 243 244 205 207 202 211 226 238 239 246 243 232 228 222 218 220 213 209 212 213 211 210 217 211 194 197 224 240 242 239 231 232 227 222 220 221 225 229 226 218
309 306 292 259 233 209 222 220 224 240 245 246 248 251 245 232 227 222 220 217 212 211 212 213 207 217 212 203 211 208 230 231 234 244 233 233 236 225 230 231 234 234 235
314 288 280 295 253 223 224 212 242 270 267 259 251 251 254 246 235 230 225 223 218 214 214 215 210 214 216 213 216 216 219 230 238 223 236 234 233 237 237 233 236 234 236
282 286 295 294 268 233 214 221 224 233 254 262 262 259 258 248 239 239 234 228 222 222 221 221 219 224 216 213 217 231 245 249 228 228 224 234 238 240 241 237 238 233 233
286 288 302 292 280 262 237 248 247 254 264 269 268 264 265 256 243 240 242 237 230 229 228 225 222 224 224 219 213 215 226 234 244 244 247 241 239 240 239 239 239 233 230
287 285 307 289 283 290 261 257 260 266 272 270 267 266 266 264 250 243 243 242 238 235 231 230 227 226 226 224 220 215 215 214 219 229 242 242 249 248 241 239 238 234 230
Height
1529 1530 1531 1533 1534 1535 1536 1536 1537 1537 1538 1538 1538 1538 1539 1539 1539 1539 1539 1539 1539 1540 1539 1539 1539 1539 1539 1539 1539 1538 1538 1538 1538 1538 1538 1538 1538 1538 1538 1537 1538 1537 1537
1528 1530 1531 1532 1534 1535 1536 1537 1537 1538 1539 1539 1539 1539 1540 1540 1540 1540 1541 1541 1541 1541 1541 1540 1540 1540 1540 1540 1540 1540 1540 1540 1540 1540 1540 1540 1540 1539 1539 1539 1539 1538 1538
1528 1530 1531 1533 1534 1535 1536 1537 1538 1539 1539 1540 1540 1540 1541 1541 1541 1542 1542 1542 1542 1542 1542 1542 1541 1542 1542 1541 1541 1541 1541 1541 1541 1542 1542 1542 1541 1541 1541 1540 1540 1540 1539
1529 1530 1531 1533 1534 1535 1537 1537 1538 1539 1540 1540 1541 1541 1541 1542 1542 1542 1542 1542 1543 1543 1542 1542 1542 1542 1542 1542 1542 1542 1543 1543 1543 1543 1544 1544 1543 1542 1542 1542 1541 1541 1541
1529 1530 1531 1533 1534 1536 1537 1538 1539 1539 1540 1540 1541 1542 1542 1542 1542 1543 1543 1543 1543 1543 1543 1543 1543 1543 1543 1543 1543 1543 1544 1544 1544 1544 1545 1544 1544 1544 1543 1543 1543 1542 1542
1529 1531 1531 1533 1534 1536 1537 1538 1539 1540 1540 1541 1541 1542 1542 1543 1543 1543 1543 1543 1543 1544 1544 1544 1544 1544 1544 1544 1544 1544 1544 1545 1545 1546 1545 1546 1545 1545 1544 1544 1544 1543 1543
1529 1531 1532 1533 1534 1535 1537 1538 1539 1540 1540 1541 1541 1542 1543 1543 1543 1543 1543 1544 1544 1544 1544 1544 1544 1544 1544 1544 1544 1544 1545 1545 1546 1546 1546 1546 1546 1546 1545 1545 1544 1544 1544
1529 1531 1532 1533 1534 1535 1536 1537 1538 1539 1540 1541 1541 1542 1542 1543 1543 1543 1544 1544 1544 1544 1544 1544 1544 1544 1545 1545 1545 1545 1545 1546 1546 1546 1547 1547 1546 1546 1546 1545 1545 1545 1544
1529 1530 1532 1533 1533 1534 1536 1537 1538 1539 1540 1540 1541 1542 1542 1543 1543 1543 1544 1544 1544 1544 1544 1545 1545 1545 1545 1545 1545 1545 1546 1546 1547 1547 1547 1547 1546 1546 1546 1546 1545 1545 1544
1528 1530 1531 1533 1533 1534 1535 1537 1538 1538 1539 1540 1541 1541 1542 1543 1543 1543 1543 1544 1544 1544 1544 1545 1545 1545 1545 1545 1545 1546 1546 1546 1547 1547 1547 1547 1546 1546 1546 1546 1545 1545 1544
1528 1529 1530 1532 1532 1534 1535 1536 1537 1538 1538 1539 1540 1541 1541 1542 1543 1543 1543 1543 1543 1544 1544 1544 1545 1545 1545 1545 1545 1546 1546 1546 1547 1547 1546 1546 1546 1546 1546 1545 1545 1545 1544
1527 1528 1529 1530 1531 1532 1534 1535 1536 1537 1537 1538 1539 1540 1540 1541 1542 1542 1542 1543 1543 1543 1543 1544 1544 1544 1545 1545 1545 1545 1545 1546 1546 1546 1546 1546 1546 1546 1545 1545 1545 1544 1544
1526 1527 1528 1529 1530 1531 1532 1533 1534 1535 1536 1537 1538 1538 1539 1540 1540 1540 1541 1541 1542 1542 1542 1543 1543 1544 1544 1544 1544 1545 1544 1545 1545 1545 1545 1545 1545 1545 1544 1544 1544 1544 1543
1524 1526 1527 1528 1528 1529 1530 1531 1532 1533 1534 1535 1536 1537 1537 1538 1538 1539 1539 1540 1540 1541 1541 1542 1542 1542 1543 1543 1543 1544 1543 1544 1544 1544 1544 1544 1544 1544 1543 1543 1543 1543 1542
1522 1523 1525 1526 1527 1527 1528 1529 1530 1531 1532 1533 1533 1534 1535 1536 1536 1537 1537 1538 1539 1539 1539 1540 1541 1541 1541 1542 1542 1542 1542 1542 1542 1542 1542 1542 1542 1542 1542 1542 1542 1542 1541
1520 1521 1522 1524 1525 1526 1526 1527 1528 1529 1529 1530 1531 1532 1533 1533 1534 1534 1535 1536 1536 1537 1537 1538 1539 1539 1540 1540 1540 1541 1541 1540 1540 1541 1540 1540 1540 1540 1540 1540 1540 1540 1540
1518 1519 1520 1521 1523 1524 1524 1525 1525 1526 1527 1528 1528 1529 1530 1531 1532 1532 1532 1533 1534 1534 1535 1536 1536 1537 1537 1538 1538 1538 1539 1538 1538 1539 1539 1539 1538 1538 1538 1538 1537 1538 1537
1516 1517 1518 1519 1520 1521 1522 1523 1523 1524 1525 1525 1526 1527 1527 1528 1529 1529 1530 1530 1531 1532 1533 1533 1534 1534 1534 1535 1536 1536 1536 1536 1536 1536 1536 1536 1536 1536 1536 1535 1535 1535 1535
1514 1514 1515 1516 1518 1519 1519 1520 1521 1522 1522 1523 1523 1524 1524 1525 1526 1526 1527 1527 1528 1529 1530 1530 1531 1531 1532 1532 1533 1533 1533 1533 1533 1533 1533 1534 1534 1534 1533 1533 1533 1533 1532
1511 1512 1513 1514 1515 1516 1517 1518 1518 1519 1520 1520 1520 1521 1521 1522 1523 1523 1524 1524 1525 1526 1527 1527 1528 1528 1529 1529 1529 1530 1530 1530 1530 1530 1531 1531 1531 1531 1531 1531 1531 1530 1530
1509 1510 1510 1511 1512 1513 1513 1514 1515 1516 1516 1517 1517 1518 1518 1519 1519 1520 1520 1521 1522 1522 1523 1524 1525 1525 1525 1526 1527 1527 1527 1527 1527 1527 1528 1528 1528 1528 1528 1528 1528 1527 1527
1506 1507 1508 1508 1509 1509 1510 1511 1512 1512 1513 1513 1514 1514 1515 1515 1516 1516 1517 1517 1518 1519 1519 1520 1520 1521 1521 1522 1523 1524 1525 1525 1523 1524 1524 1524 1524 1524 1524 1524 1524 1524 1523
1504 1504 1505 1505 1506 1506 1507 1508 1508 1509 1509 1510 1510 1510 1511 1511 1512 1512 1513 1513 1514 1514 1514 1515 1516 1517 1517 1518 1519 1521 1521 1521 1521 1520 1520 1520 1520 1521 1521 1521 1520 1520 1520
1501 1501 1502 1502 1503 1503 1504 1504 1505 1505 1505 1505 1506 1506 1506 1507 1507 1508 1508 1509 1509 1509 1510 1511 1511 1512 1513 1513 1514 1515 1516 1516 1517 1517 1517 1516 1516 1516 1517 1516 1516 1516 1516
1498 1499 1499 1499 1500 1500 1501 1501 1502 1502 1502 1502 1502 1501 1501 1502 1502 1503 1503 1504 1504 1504 1505 1506 1506 1507 1508 1508 1508 1509 1510 1511 1512 1513 1512 1512 1512 1513 1513 1512 1512 1512 1512
1495 1495 1496 1496 1496 1496 1497 1498 1498 1497 1497 1497 1497 1497 1497 1497 1497 1497 1498 1498 1499 1499 1500 1500 1501 1502 1502 1503 1503 1504 1504 1505 1506 1507 1508 1508 1508 1508 1508 1508 1508 1508 1507